Time,TemperatureF,DewpointF,PressureIn,WindDirection,WindDirectionDegrees,WindSpeedMPH,WindSpeedGustMPH,Humidity,HourlyPrecipIn,Conditions,Clouds,dailyrainin,SolarRadiationWatts/m^2,SoftwareType,DateUTC
2013-07-07 00:14:00,68.8,64.0,29.83,NE,42,0.0,0.0,85,0.00,,,0.00,0,weatherlink.com 1.10,2013-07-07 04:14:00,
2013-07-07 00:29:00,68.6,65.0,29.83,NE,42,0.0,1.0,87,0.00,,,0.00,0,weatherlink.com 1.10,2013-07-07 04:29:00,
2013-07-07 00:44:00,68.7,65.0,29.82,NE,42,0.0,1.0,87,0.00,,,0.00,0,weatherlink.com 1.10,2013-07-07 04:44:00,
2013-07-07 00:59:00,69.3,65.0,29.81,NE,42,0.0,0.0,87,0.00,,,0.00,0,weatherlink.com 1.10,2013-07-07 04:59:00,
2013-07-07 01:14:00,70.4,67.0,29.80,SE,139,3.0,4.0,88,0.00,,,0.00,0,weatherlink.com 1.10,2013-07-07 05:14:00,
2013-07-07 01:29:00,73.3,68.0,29.80,SSW,194,3.0,4.0,82,0.00,,,0.00,0,weatherlink.com 1.10,2013-07-07 05:29:00,
2013-07-07 01:45:00,74.5,68.0,29.80,SSW,192,0.0,4.0,80,0.00,,,0.00,0,weatherlink.com 1.10,2013-07-07 05:45:00,
2013-07-07 02:00:00,74.9,68.0,29.80,SSW,192,3.0,3.0,79,0.00,,,0.00,0,weatherlink.com 1.10,2013-07-07 06:00:00,
2013-07-07 02:15:00,75.1,68.0,29.80,South,170,2.0,6.0,78,0.00,,,0.00,0,weatherlink.com 1.10,2013-07-07 06:15:00,
2013-07-07 02:30:00,75.0,68.0,29.79,SSW,211,1.0,6.0,78,0.00,,,0.00,0,weatherlink.com 1.10,2013-07-07 06:30:00,
2013-07-07 02:45:00,74.9,68.0,29.79,SW,229,3.0,5.0,79,0.00,,,0.00,0,weatherlink.com 1.10,2013-07-07 06:45:00,
2013-07-07 03:00:00,74.8,68.0,29.80,SSW,212,3.0,7.0,79,0.00,,,0.00,0,weatherlink.com 1.10,2013-07-07 07:00:00,
2013-07-07 03:15:00,74.8,68.0,29.79,South,181,2.0,6.0,79,0.00,,,0.00,0,weatherlink.com 1.10,2013-07-07 07:15:00,
2013-07-07 03:30:00,74.6,68.0,29.79,South,187,2.0,5.0,80,0.00,,,0.00,0,weatherlink.com 1.10,2013-07-07 07:30:00,
2013-07-07 03:45:00,74.4,68.0,29.79,SSW,193,2.0,7.0,80,0.00,,,0.00,0,weatherlink.com 1.10,2013-07-07 07:45:00,
2013-07-07 04:00:00,74.4,68.0,29.79,SSW,198,1.0,7.0,80,0.00,,,0.00,0,weatherlink.com 1.10,2013-07-07 08:00:00,
2013-07-07 04:15:00,74.3,68.0,29.79,South,180,2.0,6.0,80,0.00,,,0.00,0,weatherlink.com 1.10,2013-07-07 08:15:00,
2013-07-07 04:30:00,74.2,68.0,29.79,SSW,208,2.0,3.0,80,0.00,,,0.00,0,weatherlink.com 1.10,2013-07-07 08:30:00,
2013-07-07 04:45:00,73.9,68.0,29.80,South,183,1.0,5.0,81,0.00,,,0.00,0,weatherlink.com 1.10,2013-07-07 08:45:00,
2013-07-07 05:00:00,73.7,68.0,29.81,South,182,0.0,2.0,81,0.00,,,0.00,0,weatherlink.com 1.10,2013-07-07 09:00:00,
2013-07-07 05:15:00,73.5,68.0,29.81,South,182,1.0,1.0,82,0.00,,,0.00,0,weatherlink.com 1.10,2013-07-07 09:15:00,
2013-07-07 05:30:00,72.0,65.0,29.82,NE,53,1.0,6.0,79,0.00,,,0.00,0,weatherlink.com 1.10,2013-07-07 09:30:00,
2013-07-07 05:45:00,68.6,63.0,29.82,NE,47,1.0,4.0,82,0.00,,,0.00,0,weatherlink.com 1.10,2013-07-07 09:45:00,
2013-07-07 06:00:00,66.1,62.0,29.82,NE,49,1.0,3.0,85,0.00,,,0.00,0,weatherlink.com 1.10,2013-07-07 10:00:00,
2013-07-07 06:15:00,63.9,60.0,29.83,ENE,70,0.0,4.0,88,0.00,,,0.00,0,weatherlink.com 1.10,2013-07-07 10:15:00,
2013-07-07 06:30:00,63.0,60.0,29.83,ENE,70,0.0,2.0,90,0.00,,,0.00,0,weatherlink.com 1.10,2013-07-07 10:30:00,
2013-07-07 06:45:00,62.8,60.0,29.83,ENE,70,0.0,1.0,91,0.00,,,0.00,7,weatherlink.com 1.10,2013-07-07 10:45:00,
2013-07-07 07:00:00,62.9,60.0,29.83,ENE,70,0.0,2.0,91,0.00,,,0.00,9,weatherlink.com 1.10,2013-07-07 11:00:00,
2013-07-07 07:15:00,62.9,60.0,29.84,ENE,70,0.0,0.0,91,0.00,,,0.00,12,weatherlink.com 1.10,2013-07-07 11:15:00,
2013-07-07 07:30:00,63.2,61.0,29.85,ENE,70,0.0,0.0,92,0.00,,,0.00,25,weatherlink.com 1.10,2013-07-07 11:30:00,
2013-07-07 07:45:00,63.7,61.0,29.85,ENE,70,0.0,0.0,91,0.00,,,0.00,33,weatherlink.com 1.10,2013-07-07 11:45:00,
2013-07-07 08:00:00,64.1,62.0,29.86,ENE,70,0.0,1.0,91,0.00,,,0.00,33,weatherlink.com 1.10,2013-07-07 12:00:00,
2013-07-07 08:15:00,64.4,62.0,29.86,ENE,70,0.0,2.0,91,0.00,,,0.00,28,weatherlink.com 1.10,2013-07-07 12:15:00,
2013-07-07 08:30:00,64.8,62.0,29.86,East,99,0.0,2.0,91,0.00,,,0.00,35,weatherlink.com 1.10,2013-07-07 12:30:00,
2013-07-07 08:45:00,65.2,63.0,29.85,East,99,0.0,1.0,92,0.01,,,0.01,16,weatherlink.com 1.10,2013-07-07 12:45:00,
2013-07-07 09:00:00,65.1,63.0,29.84,East,99,0.0,1.0,93,0.03,,,0.03,16,weatherlink.com 1.10,2013-07-07 13:00:00,
2013-07-07 09:15:00,64.9,64.0,29.83,East,99,0.0,1.0,95,0.08,,,0.08,12,weatherlink.com 1.10,2013-07-07 13:15:00,
2013-07-07 09:30:00,65.2,64.0,29.81,SE,136,2.0,4.0,96,0.11,,,0.11,9,weatherlink.com 1.10,2013-07-07 13:30:00,
2013-07-07 09:45:00,67.0,66.0,29.81,SSE,163,4.0,9.0,97,0.14,,,0.15,21,weatherlink.com 1.10,2013-07-07 13:45:00,
2013-07-07 10:00:00,68.0,67.0,29.81,South,188,1.0,10.0,95,0.13,,,0.16,42,weatherlink.com 1.10,2013-07-07 14:00:00,
2013-07-07 10:15:00,68.1,67.0,29.80,SSE,167,1.0,5.0,95,0.08,,,0.16,54,weatherlink.com 1.10,2013-07-07 14:15:00,
2013-07-07 10:30:00,68.2,67.0,29.81,SW,215,0.0,1.0,95,0.05,,,0.16,63,weatherlink.com 1.10,2013-07-07 14:30:00,
2013-07-07 10:45:00,68.4,67.0,29.82,SW,215,0.0,0.0,96,0.01,,,0.16,142,weatherlink.com 1.10,2013-07-07 14:45:00,
2013-07-07 11:00:00,69.1,68.0,29.82,SW,215,0.0,0.0,97,0.00,,,0.16,213,weatherlink.com 1.10,2013-07-07 15:00:00,
2013-07-07 11:16:00,69.8,69.0,29.82,SW,215,0.0,0.0,97,0.00,,,0.16,359,weatherlink.com 1.10,2013-07-07 15:16:00,
2013-07-07 11:31:00,72.1,69.0,29.82,SW,215,0.0,2.0,91,0.00,,,0.16,329,weatherlink.com 1.10,2013-07-07 15:31:00,
2013-07-07 11:46:00,72.9,70.0,29.82,SW,215,0.0,2.0,89,0.00,,,0.16,288,weatherlink.com 1.10,2013-07-07 15:46:00,
2013-07-07 12:01:00,73.8,70.0,29.81,SW,215,0.0,3.0,89,0.00,,,0.16,645,weatherlink.com 1.10,2013-07-07 16:01:00,
2013-07-07 12:16:00,75.0,70.0,29.81,SSE,159,2.0,6.0,84,0.00,,,0.16,782,weatherlink.com 1.10,2013-07-07 16:16:00,
2013-07-07 12:31:00,76.6,72.0,29.82,SSE,159,1.0,3.0,85,0.00,,,0.16,911,weatherlink.com 1.10,2013-07-07 16:31:00,
2013-07-07 12:46:00,76.6,70.0,29.82,ENE,69,0.0,3.0,80,0.00,,,0.16,462,weatherlink.com 1.10,2013-07-07 16:46:00,
2013-07-07 13:01:00,77.6,71.0,29.82,South,177,0.0,4.0,80,0.00,,,0.16,751,weatherlink.com 1.10,2013-07-07 17:01:00,
2013-07-07 13:16:00,77.5,71.0,29.81,ENE,57,0.0,4.0,80,0.00,,,0.16,494,weatherlink.com 1.10,2013-07-07 17:16:00,
2013-07-07 13:31:00,77.8,69.0,29.82,SSE,152,0.0,4.0,74,0.00,,,0.16,381,weatherlink.com 1.10,2013-07-07 17:31:00,
2013-07-07 13:46:00,78.6,71.0,29.82,SSE,155,3.0,4.0,78,0.00,,,0.16,322,weatherlink.com 1.10,2013-07-07 17:46:00,
2013-07-07 14:01:00,78.2,70.0,29.83,South,170,1.0,4.0,76,0.00,,,0.16,362,weatherlink.com 1.10,2013-07-07 18:01:00,
2013-07-07 14:16:00,76.7,69.0,29.82,NNE,29,0.0,5.0,78,0.00,,,0.16,366,weatherlink.com 1.10,2013-07-07 18:16:00,
2013-07-07 14:31:00,74.7,69.0,29.83,NE,49,4.0,5.0,82,0.00,,,0.16,232,weatherlink.com 1.10,2013-07-07 18:31:00,
2013-07-07 14:46:00,74.4,69.0,29.83,NE,36,2.0,7.0,83,0.00,,,0.16,396,weatherlink.com 1.10,2013-07-07 18:46:00,
2013-07-07 15:01:00,73.9,68.0,29.83,NE,50,1.0,4.0,81,0.00,,,0.16,221,weatherlink.com 1.10,2013-07-07 19:01:00,
2013-07-07 15:16:00,73.7,68.0,29.83,ENE,64,1.0,5.0,82,0.00,,,0.16,536,weatherlink.com 1.10,2013-07-07 19:16:00,
2013-07-07 15:31:00,74.5,68.0,29.83,ENE,63,0.0,1.0,81,0.00,,,0.16,378,weatherlink.com 1.10,2013-07-07 19:31:00,
2013-07-07 15:46:00,75.1,69.0,29.82,ENE,63,0.0,3.0,81,0.00,,,0.16,404,weatherlink.com 1.10,2013-07-07 19:46:00,
2013-07-07 16:01:00,75.8,68.0,29.83,ENE,57,1.0,7.0,76,0.00,,,0.16,283,weatherlink.com 1.10,2013-07-07 20:01:00,
2013-07-07 16:16:00,75.1,68.0,29.83,NE,52,1.0,5.0,78,0.00,,,0.16,406,weatherlink.com 1.10,2013-07-07 20:16:00,
2013-07-07 16:31:00,74.4,68.0,29.83,East,80,1.0,5.0,79,0.00,,,0.16,244,weatherlink.com 1.10,2013-07-07 20:31:00,
2013-07-07 16:46:00,73.7,68.0,29.83,ENE,65,3.0,4.0,81,0.00,,,0.16,134,weatherlink.com 1.10,2013-07-07 20:46:00,
2013-07-07 17:01:00,72.9,67.0,29.84,ENE,65,1.0,4.0,82,0.00,,,0.16,74,weatherlink.com 1.10,2013-07-07 21:01:00,
2013-07-07 17:16:00,72.3,67.0,29.84,ENE,65,0.0,2.0,83,0.00,,,0.16,65,weatherlink.com 1.10,2013-07-07 21:16:00,
2013-07-07 17:31:00,71.9,67.0,29.84,ENE,65,0.0,2.0,84,0.00,,,0.16,53,weatherlink.com 1.10,2013-07-07 21:31:00,
2013-07-07 17:46:00,70.8,66.0,29.84,ENE,65,0.0,4.0,85,0.00,,,0.16,62,weatherlink.com 1.10,2013-07-07 21:46:00,
2013-07-07 18:01:00,69.7,66.0,29.84,ENE,64,0.0,2.0,89,0.06,,,0.22,63,weatherlink.com 1.10,2013-07-07 22:01:00,
2013-07-07 18:16:00,67.3,65.0,29.85,ENE,67,0.0,3.0,92,0.10,,,0.26,146,weatherlink.com 1.10,2013-07-07 22:16:00,
2013-07-07 18:31:00,65.8,64.0,29.85,ENE,61,0.0,7.0,92,0.10,,,0.26,135,weatherlink.com 1.10,2013-07-07 22:31:00,
2013-07-07 18:46:00,64.2,62.0,29.85,NE,51,1.0,5.0,92,0.10,,,0.26,128,weatherlink.com 1.10,2013-07-07 22:46:00,
2013-07-07 19:01:00,63.1,61.0,29.85,NE,51,0.0,4.0,93,0.03,,,0.26,137,weatherlink.com 1.10,2013-07-07 23:01:00,
2013-07-07 19:16:00,62.5,61.0,29.86,ENE,67,0.0,4.0,94,0.00,,,0.26,60,weatherlink.com 1.10,2013-07-07 23:16:00,
2013-07-07 19:31:00,62.1,60.0,29.87,ENE,67,0.0,3.0,94,0.00,,,0.26,70,weatherlink.com 1.10,2013-07-07 23:31:00,
2013-07-07 19:46:00,61.8,60.0,29.86,ENE,67,0.0,2.0,94,0.00,,,0.26,81,weatherlink.com 1.10,2013-07-07 23:46:00,
2013-07-07 20:01:00,61.6,60.0,29.86,ENE,67,0.0,2.0,94,0.00,,,0.26,37,weatherlink.com 1.10,2013-07-08 00:01:00,
2013-07-07 20:16:00,61.5,60.0,29.87,ENE,67,0.0,0.0,95,0.00,,,0.26,33,weatherlink.com 1.10,2013-07-08 00:16:00,
2013-07-07 20:31:00,61.0,59.0,29.86,ENE,67,0.0,2.0,94,0.00,,,0.26,16,weatherlink.com 1.10,2013-07-08 00:31:00,
2013-07-07 20:46:00,60.7,59.0,29.87,ENE,67,0.0,2.0,94,0.00,,,0.26,16,weatherlink.com 1.10,2013-07-08 00:46:00,
2013-07-07 21:01:00,60.3,59.0,29.87,ENE,67,2.0,3.0,95,0.00,,,0.26,7,weatherlink.com 1.10,2013-07-08 01:01:00,
2013-07-07 21:16:00,59.4,58.0,29.88,ENE,65,0.0,3.0,95,0.00,,,0.26,5,weatherlink.com 1.10,2013-07-08 01:16:00,
2013-07-07 21:31:00,58.8,57.0,29.88,ENE,65,1.0,2.0,95,0.00,,,0.26,0,weatherlink.com 1.10,2013-07-08 01:31:00,
2013-07-07 21:46:00,58.4,57.0,29.88,ENE,65,0.0,1.0,96,0.00,,,0.26,0,weatherlink.com 1.10,2013-07-08 01:46:00,
2013-07-07 22:01:00,58.3,57.0,29.89,ENE,65,0.0,2.0,95,0.00,,,0.26,0,weatherlink.com 1.10,2013-07-08 02:01:00,
2013-07-07 22:16:00,58.2,57.0,29.89,ENE,65,0.0,0.0,96,0.00,,,0.26,0,weatherlink.com 1.10,2013-07-08 02:16:00,
2013-07-07 22:31:00,58.1,57.0,29.90,ENE,65,0.0,0.0,96,0.00,,,0.26,0,weatherlink.com 1.10,2013-07-08 02:31:00,
2013-07-07 22:46:00,58.2,57.0,29.91,ENE,65,0.0,0.0,96,0.00,,,0.26,0,weatherlink.com 1.10,2013-07-08 02:46:00,
2013-07-07 23:01:00,58.4,57.0,29.91,ENE,65,0.0,0.0,96,0.00,,,0.26,0,weatherlink.com 1.10,2013-07-08 03:01:00,
2013-07-07 23:16:00,58.6,58.0,29.90,ENE,65,0.0,0.0,97,0.00,,,0.26,0,weatherlink.com 1.10,2013-07-08 03:16:00,
2013-07-07 23:31:00,58.8,58.0,29.89,ENE,65,0.0,1.0,97,0.00,,,0.26,0,weatherlink.com 1.10,2013-07-08 03:31:00,
2013-07-07 23:46:00,59.0,58.0,29.89,ENE,65,0.0,0.0,97,0.00,,,0.26,0,weatherlink.com 1.10,2013-07-08 03:46:00,